星链-3523 (STARLINK-3523 )

导读

STARLINK-3523是美国SpaceX公司星链计划的成员卫星,于2022年2月21日发射入轨。星链项目旨在构建全球低轨卫星互联网星座,为全球缺乏地面基础设施的区域提供高速宽带互联网接入服务,STARLINK-3523作为组网卫星,承担着扩展星链星座覆盖范围、提升网络服务容量与稳定性的作用,是星链星座建设过程中补充组网的重要单元,助力推进全球卫星互联网络的落地。

基本信息
目录编号:
51729
目录名称:
STARLINK-3523
国际标识:
2022-016R
轨道中心:
EARTH
卫星名称:
星链-3523
卫星全名:
星链-3523 (STARLINK-3523 )
卫星状态:
在轨 (已飞行1577 天)
发射日期:
2022-02-21 UTC
国别 :
美国 (US)
星等 :
--
轨道信息
数据来源 国际轨道数据 AOE轨道数据
星历时间 2026-06-17T18:37:37+0800
6小时前
查看轨道信息
2026-06-16T10:00:00+0800
1天前
查看轨道信息
半长轴 6917.898km 6917.876km
偏心率 0.0001103 0.0001229
轨道倾角 53.159° 53.157°
近地点辐角 80.170° 79.773°
升交点赤经 231.213° 237.324°
平近点角 279.941° 91.983°
近地点 538.997km 538.888km
远地点 540.525km 540.59km
周期 95.438分钟 95.437分钟
每日圈数 15.088345 15.088416
详细信息
固有亮度:
5
最大亮度:
2.5
卫星平台:
Starlink v1.5
覆盖范围:
全球
运营商:
太空探索技术公司
运营商所在国:
美国
制造商(研发单位):
太空探索技术公司
制造商所在国:
美国
使用方式:
暂无
卫星简介
星链(Starlink)计划是由太空探索技术公司(SpaceX)提出的一个巨型低轨卫星互联网星座项目,计划在2019年至2024年间在太空搭建由约1.2万颗卫星组成的“星链”网络,其中1584颗将部署在地球上空550千米处的近地轨道,并从2020年开始工作。该卫星仍在工作。
2D轨道图
3D轨道图
轨道高度分析图
轨道倾角分析图
轨道综合分析图
查看轨道综合分析图